Retour au catalogue

KUIPER-00614

ActifCommunicationsLEO
NORAD 69773·PAYLOAD·🇺🇸 United States

Lancé Jul 2, 2026 depuis Cape Canaveral Space Force Station

Loading…

Prochains Passages (prochaines 24 heures)

TLE

FraisSource: CelesTrak SupGP

Époque: Sep 14, 2026, 16:10 UTC

1 69773C 26151L   26257.67363426  .00000907  00000+0  11878-3 0  2576
2 69773  51.8967 255.0130 0000973  60.1246 336.2610 14.79922508    13

Suivez KUIPER-00614 en temps réel avec AllMySat

Download on the App Store